Regional Weather Roundup
Issued by NWS

Home | Current Version | Previous Version | Graphics & Text | Print | Product List | Glossary Off
Versions: 1 2 3 4 5 6 7 8 9 10 11 12 13 14 15 16 17 18 19 20 21 22 23 24 25 26 27 28 29 30 31 32 33 34 35 36 37 38 39 40 41 42 43 44 45 46 47 48 49 50

000
ASUS43 KDMX 270008
RWRIA

WEATHER ROUNDUP FOR IOWA
NATIONAL WEATHER SERVICE DES MOINES IA
700 PM CDT FRI AUG 26 2016

NOTE: "FAIR" INDICATES FEW OR NO CLOUDS BELOW 12,000 FEET WITH NO
SIGNIFICANT WEATHER AND/OR OBSTRUCTIONS TO VISIBILITY.

* - THESE STATIONS ARE NOT NWS STATIONS...THUS NOT UNDER NWS
QUALITY CONTROL.  THEY ALSO DO NOT REPORT WEATHER SUCH
AS PRECIPITATION OR FOG.

IAZ001>003-012>014-020>022-031>034-043>046-270100-
   NORTHWEST IOWA

CITY           SKY/WX    TMP DP  RH WIND       PRES   REMARKS
CARROLL *      CLOUDY    66  64  94 E7        30.08S
CHEROKEE *     PTSUNNY   68  62  81 E5        30.08F
DENISON *      CLOUDY    64  61  88 E6        30.05F FOG
LE MARS *      CLOUDY    70  61  73 E6        30.07F
ORANGE CITY *  MOSUNNY   70  63  78 E5        30.09F
SHELDON *      CLOUDY    68  63  83 VRB6      30.08F
SIOUX CITY     CLOUDY    72  62  71 E7        30.05F
6HR MIN TEMP:  71; 6HR MAX TEMP:  76;

SPENCER        MOSUNNY   67  60  78 E6        30.10F
6HR MIN TEMP:  67; 6HR MAX TEMP:  70;

STORM LAKE *   CLOUDY    66  61  82 E6        30.09F
$$

IAZ055>058-069>071-079>083-090>094-270100-
   SOUTHWEST IOWA

CITY           SKY/WX    TMP DP  RH WIND       PRES   REMARKS
ATLANTIC *     DRIZZLE   66  63  88 NE7G13    30.05F
AUDUBON *      CLOUDY    66  63  88 NE6       30.08S
CLARINDA *       N/A     70  68  94 MISG      30.05S FOG
COUNCIL BLFS * CLOUDY    68  64  88 NE8       30.04S
CRESTON *      CLOUDY    68  66  94 NE9       30.06F
HARLAN  *      CLOUDY    66  64  94 E9        30.08F
LAMONI         CLOUDY    72  68  87 NE7       30.03F
6HR MIN TEMP:  72; 6HR MAX TEMP:  76; 6HR PCP: TRACE;

RED OAK *      CLOUDY    68  68 100 NE8       30.03F
SHENANDOAH *   CLOUDY    72 -36   1 E8        30.02F
$$

IAZ047>049-059>061-072>074-084-270100-
   CENTRAL IOWA

CITY           SKY/WX    TMP DP  RH WIND       PRES   REMARKS
AMES           CLOUDY    65  63  93 E8        30.08F
6HR MIN TEMP:  65; 6HR MAX TEMP:  72; 6HR PCP:  0.04;

ANKENY *         N/A    N/A N/A N/A MISG        N/A
BOONE *        CLOUDY    64  61  88 NE8       30.08S
CHARITON *       N/A     72  66  83 MISG      30.05S
DES MOINES     CLOUDY    70  65  84 NE10      30.06S
6HR MIN TEMP:  70; 6HR MAX TEMP:  74; 6HR PCP:  0.01;

GRINNELL*      LGT RAIN  68  63  82 NE7       30.09S
KNOXVILLE *    CLOUDY    72  64  78 NE9       30.04F
MARSHALLTOWN   CLOUDY    66  62  87 NE10      30.08F
6HR MIN TEMP:  66; 6HR MAX TEMP:  69; 6HR PCP:  0.06;

NEWTON *       CLOUDY    68  66  94 NE10      30.07S
PERRY *        CLOUDY    67  65  95 NE9       30.08S
$$

IAZ004>006-015-016-023>025-035-036-270100-
   NORTH CENTRAL IOWA

CITY           SKY/WX    TMP DP  RH WIND       PRES   REMARKS
ALGONA *       CLOUDY    68  61  77 E6        30.11F
ESTHERVILLE    CLOUDY    65  60  84 SE5       30.11F
6HR MIN TEMP:  65; 6HR MAX TEMP:  69;

FORT DODGE *   CLOUDY    66  61  82 E9        30.11F
MASON CITY     CLOUDY    66  62  87 NE3       30.14F
6HR MIN TEMP:  66; 6HR MAX TEMP:  70; 6HR PCP: TRACE;

FOREST CITY *    N/A    N/A N/A N/A MISG        N/A
WEBSTER CITY * CLOUDY    66  64  94 NE8       30.08F
IOWA FALLS *   DRIZZLE   65  60  86 NE7       30.11F
$$

IAZ007>011-017>019-026>030-037>042-050>054-066-270100-
   NORTHEAST IOWA

CITY           SKY/WX    TMP DP  RH WIND       PRES   REMARKS
CEDAR RAPIDS   CLOUDY    72  65  78 NE10      30.08F
6HR MIN TEMP:  72; 6HR MAX TEMP:  76;

CHARLES CITY * CLOUDY    66  64  94 CALM      30.14F
CLINTON *      PTCLDY    72  66  81 NE6       30.11S
DECORAH *      CLOUDY    66  61  82 CALM      30.13F
DUBUQUE        MOCLDY    68  61  78 NE8       30.13S
6HR MIN TEMP:  68; 6HR MAX TEMP:  74;

MONTICELLO *   MOCLDY    70  63  78 NE5       30.11S
OELWEIN *      CLOUDY    64  63  94 CALM      30.14F
WATERLOO       CLOUDY    65  62  90 NE6       30.11F
6HR MIN TEMP:  65; 6HR MAX TEMP:  71; 6HR PCP:  0.03;

$$

IAZ064-065-067-068-078-270100-
   EAST CENTRAL IOWA

CITY           SKY/WX    TMP DP  RH WIND       PRES   REMARKS
DAVENPORT      CLOUDY    73  64  73 E6        30.10S
6HR MIN TEMP:  73; 6HR MAX TEMP:  78;

IOWA CITY      PTCLDY    74  64  71 E8        30.09F
6HR MIN TEMP:  74; 6HR MAX TEMP:  77;

MT. PLEASANT * CLOUDY    77  68  74 E6        30.06S
MUSCATINE *    CLOUDY    75  64  69 NE7       30.07F
QUAD CITIES    CLOUDY    77  64  64 NE8       30.08R
6HR MIN TEMP:  75; 6HR MAX TEMP:  80;

$$

IAZ062-063-075>077-085>089-095>099-270100-
   SOUTHEAST IOWA

CITY           SKY/WX    TMP DP  RH WIND       PRES   REMARKS
BURLINGTON     CLOUDY    75  70  84 NE7       30.05F
6HR MIN TEMP:  75; 6HR MAX TEMP:  79; 6HR PCP:  0.01;

FAIRFIELD *    MOCLDY    75  64  69 E8        30.05F
FORT MADISON * CLOUDY    73  70  88 NE3       30.06S
KEOKUK *       CLOUDY    77  70  78 NE3       30.04S
OSKALOOSA *    CLOUDY    71  65  82 NE7       30.06S
CENTERVILLE *  CLOUDY    73  68  83 CALM      30.06S
OTTUMWA        CLOUDY    74  65  73 NE7       30.05F
6HR MIN TEMP:  74; 6HR MAX TEMP:  77;

WASHINGTON *   MOCLDY    75  68  78 NE7       30.08S
$$

ABBREVIATIONS USED IN REMARKS
   TC - TEMPERATURES IN CELSIUS
  WCI - WIND CHILL INDEX
   HX - HEAT INDEX
  VSB - VISIBILITY
$$





USA.gov is the U.S. government's official web portal to all federal, state and local government web resources and services.